[[{"header":{"parameterUnit":"m.s-1","parameterCategory":1,"la1":30.2991,"la2":30.254,"lo1":-89.0895,"lo2":-89.0444,"dy":0.0017,"dx":0.0017,"nx":28,"ny":28,"refTime":"2025-08-07T21:00:00:Z","depth":0,"parameterNumber":2,"parameterNumberName":"U-component_of_WINDS"},"data":[0,0,0,0,0,0,0,0,0,0,0,0,0,0,0,0,0,0,0,0,0,0,0,0,0,0,0,0,0,0,0,0,0,0,0,0,0,0,0,0,0,0,0,0,0,0,0,0,0,0,0,0,0,0,0,0,0,0,-0.4737,-0.4736,0,-0.4621,-0.462,-0.4618,-0.454,-0.4539,-0.4539,-0.4538,-0.4424,-0.4422,-0.442,0,0,0,0,0,0,0,0,0,0,0,0,0,-0.4899,-0.4896,-0.4737,-0.4736,-0.4734,-0.4621,-0.462,-0.4618,-0.454,-0.4539,-0.4538,-0.4538,-0.4425,-0.4422,-0.4419,0,0,0,0,0,0,0,0,0,0,0,0,0,-0.4811,-0.4895,-0.4737,-0.4681,-0.4675,-0.4622,-0.462,-0.4618,-0.454,-0.4539,-0.4538,-0.4537,-0.4426,-0.4423,-0.4419,-0.4413,0,0,-0.4408,-0.4406,0,0,0,0,0,0,0,0,-0.4816,-0.4805,-0.4691,-0.4685,-0.4678,-0.4594,-0.4635,-0.4549,-0.454,-0.4592,-0.4538,-0.4537,-0.4482,-0.4474,-0.4454,-0.4408,-0.4403,-0.4407,-0.4405,-0.4403,-0.4402,0,0,0,0,0,0,0,-0.4822,-0.4809,-0.4691,-0.469,-0.4682,-0.4665,-0.4651,-0.4618,-0.4543,-0.4587,-0.4581,-0.4568,-0.4478,-0.4458,-0.4451,-0.4401,-0.4407,-0.4404,-0.4402,-0.44,-0.4349,-0.435,0,0,0,0,0,0,-0.4836,-0.4815,-0.4695,-0.4688,-0.4746,-0.4663,-0.4647,-0.4622,-0.4543,-0.453,-0.4569,-0.4565,-0.4464,-0.4455,-0.4446,-0.4436,-0.4403,-0.44,-0.4398,-0.4348,-0.4349,-0.435,0,0,0,0,0,0,-0.484,-0.4826,-0.47,-0.475,-0.4732,-0.4661,-0.4633,-0.462,-0.4599,-0.4529,-0.4516,-0.4561,-0.4463,-0.4452,-0.4423,-0.4431,-0.4398,-0.4395,-0.4347,-0.4349,-0.435,-0.4415,0,0,0,0,0,0,-0.4845,-0.4828,-0.4823,-0.475,-0.473,-0.4676,-0.4633,-0.4618,-0.4592,-0.4586,-0.4519,-0.4507,-0.4462,-0.4429,-0.4419,-0.4425,-0.4392,-0.4346,-0.4348,-0.4349,-0.4412,-0.4418,-0.4424,0,0,0,0,0,-0.4851,-0.4846,-0.4823,-0.4809,-0.4722,-0.4676,-0.4665,-0.4611,-0.4593,-0.4589,-0.4545,-0.4509,-0.4432,-0.4426,-0.4415,-0.442,-0.4345,-0.4347,-0.4349,-0.4409,-0.4417,-0.4424,0,0,0,0,0,0,-0.4922,-0.4835,-0.4808,-0.478,-0.4736,-0.4663,-0.4655,-0.4621,-0.4583,-0.4579,-0.4516,-0.4502,-0.448,-0.4447,-0.4442,-0.4412,-0.4385,-0.4384,-0.4434,-0.4441,-0.4447,-0.4455,-0.4389,0,0,0,0,0,-0.4935,-0.4903,-0.4829,-0.4811,-0.4791,-0.4727,-0.4705,-0.4668,-0.4621,-0.4603,-0.4556,-0.4513,-0.448,-0.4459,-0.4424,-0.4407,-0.4393,-0.4406,-0.4412,-0.4417,-0.4418,-0.4409,-0.4415,-0.4357,-0.4357,-0.4357,0,0,-0.496,-0.4909,-0.4892,-0.4825,-0.4786,-0.4757,-0.4712,-0.4682,-0.4661,-0.4598,-0.4568,-0.4533,-0.4482,-0.446,-0.4448,-0.4432,-0.4431,-0.442,-0.4425,-0.4422,-0.4412,-0.4418,-0.4423,-0.4358,-0.4358,-0.4358,0,0,-0.4991,-0.4948,-0.4929,-0.4892,-0.4834,-0.4793,-0.4789,-0.4722,-0.4696,-0.4664,-0.4617,-0.4593,-0.4535,-0.4501,-0.4477,-0.45,-0.4466,-0.4491,-0.4522,-0.4515,-0.4519,-0.4523,-0.4533,-0.4537,-0.4491,-0.4491,-0.4492,0,-0.503,-0.4982,-0.4925,-0.4898,-0.4871,-0.4813,-0.4795,-0.4763,-0.4698,-0.4682,-0.4665,-0.4594,-0.4555,-0.4525,-0.4531,-0.4513,-0.4508,-0.4497,-0.4523,-0.4526,-0.4529,-0.4537,-0.4541,-0.4495,-0.4494,-0.4494,-0.4494,0,-0.5034,-0.5002,-0.4994,-0.4931,-0.4904,-0.4882,-0.4824,-0.4804,-0.4771,-0.4732,-0.4703,-0.4655,-0.4611,-0.4601,-0.4568,-0.4568,-0.456,-0.4534,-0.4505,-0.4539,-0.4546,-0.4549,-0.45,-0.4498,-0.4497,-0.4497,0,0,-0.5104,-0.5012,-0.501,-0.4982,-0.4916,-0.4892,-0.487,-0.4825,-0.4809,-0.4768,-0.4749,-0.4704,-0.468,-0.4652,-0.4616,-0.461,-0.4634,-0.4585,-0.4583,-0.4596,-0.4633,-0.4652,-0.4657,-0.4612,-0.4612,-0.4612,-0.4637,0,-0.5126,-0.5079,-0.5029,-0.5001,-0.4973,-0.4919,-0.49,-0.486,-0.4824,-0.4797,-0.4759,-0.4728,-0.4698,-0.4682,-0.4673,-0.4632,-0.464,-0.463,-0.4595,-0.4595,-0.4609,-0.466,-0.468,-0.4706,-0.464,-0.464,-0.464,0,-0.5144,-0.5104,-0.5073,-0.5012,-0.4998,-0.4981,-0.4938,-0.4912,-0.4867,-0.4842,-0.4812,-0.4774,-0.4751,-0.4726,-0.4695,-0.469,-0.4674,-0.4652,-0.4652,-0.4646,-0.4619,-0.4656,-0.4712,-0.4717,-0.4644,-0.4643,-0.4643,0,-0.5199,-0.5138,-0.5112,-0.509,-0.5018,-0.5008,-0.4978,-0.4932,-0.4909,-0.4873,-0.4858,-0.482,-0.4799,-0.4772,-0.4726,-0.4712,-0.4702,-0.4672,-0.4682,-0.4683,-0.4681,-0.4681,-0.4735,-0.4671,-0.4671,-0.4671,-0.4671,0,-0.5228,-0.5212,-0.5137,-0.5121,-0.5102,-0.5047,-0.5031,-0.4997,-0.4956,-0.4935,-0.4888,-0.487,-0.481,-0.4786,-0.475,-0.4731,-0.4722,-0.4703,-0.4694,-0.4707,-0.471,-0.4695,-0.4692,-0.4672,-0.4672,-0.4671,-0.4671,0,-0.5287,-0.5235,-0.5204,-0.5139,-0.5122,-0.5112,-0.5057,-0.5042,-0.5005,-0.4979,-0.497,-0.4913,-0.4882,-0.4834,-0.4789,-0.4766,-0.4753,-0.4738,-0.4768,-0.4762,-0.4775,-0.4775,-0.4821,-0.4825,-0.4759,-0.4759,-0.476,0,-0.5308,-0.5294,-0.5228,-0.521,-0.5181,-0.5152,-0.5129,-0.5076,-0.5054,-0.5003,-0.4994,-0.496,-0.4929,-0.4884,-0.484,-0.4806,-0.479,-0.4808,-0.4784,-0.4799,-0.4791,-0.4792,-0.4791,-0.4814,-0.4815,-0.4816,-0.4816,0,-0.5353,-0.5329,-0.5295,-0.5255,-0.5229,-0.5194,-0.5158,-0.5147,-0.5086,-0.5065,-0.5032,-0.5009,-0.4964,-0.4931,-0.4892,-0.4864,-0.4831,-0.4825,-0.4825,-0.4838,-0.4857,-0.4848,-0.4784,-0.4823,-0.4823,-0.4822,-0.4822,-0.4821,-0.5393,-0.5379,-0.5331,-0.5297,-0.5264,-0.5232,-0.5215,-0.5176,-0.5147,-0.5105,-0.5077,-0.5047,-0.5005,-0.4949,-0.4924,-0.4901,-0.4887,-0.4887,-0.4887,-0.4888,-0.4894,-0.4861,-0.4894,-0.4894,-0.4894,-0.4894,-0.4893,0,-0.5436,-0.5403,-0.5372,-0.5323,-0.5297,-0.5267,-0.5227,-0.5208,-0.5181,-0.5145,-0.5116,-0.508,-0.5049,-0.5004,-0.497,-0.4962,-0.4946,-0.4955,-0.4955,-0.4949,-0.4909,-0.4912,-0.4968,-0.4968,-0.4968,-0.4968,-0.4968,-0.4968,-0.5455,-0.543,-0.5401,-0.5362,-0.5329,-0.5298,-0.5277,-0.5249,-0.5219,-0.5181,-0.5155,-0.5125,-0.5086,-0.505,-0.5021,-0.5009,-0.4999,-0.5013,-0.4996,-0.4959,-0.4952,-0.4945,-0.4948,-0.5011,-0.5011,-0.5039,-0.5039,-0.5039]},{"header":{"parameterUnit":"m.s-1","parameterCategory":1,"la1":30.2991,"la2":30.254,"lo1":-89.0895,"lo2":-89.0444,"dy":0.0017,"dx":0.0017,"nx":28,"ny":28,"refTime":"2025-08-07T21:00:00:Z","depth":0,"parameterNumber":3,"parameterNumberName":"V-component_of_WINDS"},"data":[0,0,0,0,0,0,0,0,0,0,0,0,0,0,0,0,0,0,0,0,0,0,0,0,0,0,0,0,0,0,0,0,0,0,0,0,0,0,0,0,0,0,0,0,0,0,0,0,0,0,0,0,0,0,0,0,0,0,3.5511,3.5511,0,3.5492,3.5492,3.5492,3.5474,3.5474,3.5474,3.5474,3.5454,3.5453,3.5453,0,0,0,0,0,0,0,0,0,0,0,0,0,3.553,3.553,3.5511,3.5511,3.551,3.5492,3.5492,3.5492,3.5475,3.5474,3.5474,3.5474,3.5454,3.5453,3.5453,0,0,0,0,0,0,0,0,0,0,0,0,0,3.5518,3.553,3.5511,3.55,3.5498,3.5492,3.5492,3.5492,3.5475,3.5474,3.5474,3.5474,3.5454,3.5454,3.5453,3.5456,0,0,3.5452,3.5451,0,0,0,0,0,0,0,0,3.5518,3.5517,3.5501,3.55,3.5499,3.5485,3.5491,3.548,3.5475,3.5484,3.5474,3.5473,3.5464,3.5463,3.546,3.5455,3.5455,3.5451,3.5451,3.5451,3.5451,0,0,0,0,0,0,0,3.5519,3.5518,3.5503,3.5501,3.55,3.5495,3.5493,3.5489,3.5476,3.5483,3.5481,3.548,3.5464,3.5461,3.546,3.5454,3.5451,3.5451,3.5451,3.5451,3.545,3.5451,0,0,0,0,0,0,3.5522,3.5518,3.5504,3.5503,3.5508,3.5495,3.5493,3.549,3.5476,3.5474,3.548,3.5479,3.5462,3.546,3.5459,3.5461,3.5451,3.545,3.545,3.545,3.545,3.5451,0,0,0,0,0,0,3.5522,3.5521,3.5505,3.551,3.5508,3.5495,3.5492,3.549,3.5487,3.5474,3.5471,3.5479,3.5462,3.546,3.5457,3.546,3.545,3.545,3.545,3.545,3.5451,3.5466,0,0,0,0,0,0,3.5523,3.5521,3.5522,3.551,3.5508,3.5504,3.5492,3.549,3.5486,3.5485,3.5473,3.547,3.5461,3.5458,3.5457,3.5459,3.5449,3.5449,3.545,3.545,3.5465,3.5467,3.5469,0,0,0,0,0,3.5524,3.5528,3.5523,3.5521,3.5509,3.5504,3.5502,3.5492,3.5487,3.5488,3.5479,3.5471,3.546,3.5458,3.5456,3.5459,3.5449,3.545,3.545,3.5465,3.5467,3.5469,0,0,0,0,0,0,3.554,3.5526,3.552,3.552,3.5513,3.5501,3.5502,3.5495,3.5489,3.5488,3.5475,3.5472,3.5471,3.5465,3.5462,3.5461,3.5454,3.5454,3.5465,3.5467,3.5469,3.547,3.5449,0,0,0,0,0,3.5544,3.5541,3.5528,3.553,3.5527,3.5515,3.5512,3.5505,3.5497,3.5494,3.5485,3.5478,3.5473,3.547,3.5464,3.5465,3.5461,3.5466,3.5467,3.5469,3.5469,3.5468,3.547,3.5453,3.5453,3.5453,0,0,3.5551,3.5543,3.5542,3.5533,3.5527,3.5523,3.5513,3.551,3.5507,3.5493,3.549,3.5484,3.5474,3.5473,3.5472,3.5468,3.5473,3.547,3.5471,3.547,3.5469,3.5471,3.5472,3.5453,3.5453,3.5453,0,0,3.5562,3.5557,3.5557,3.5551,3.5542,3.5534,3.5534,3.5523,3.5518,3.5515,3.5504,3.55,3.5492,3.5486,3.5481,3.5491,3.5482,3.5489,3.5498,3.5497,3.5498,3.5499,3.5502,3.5503,3.549,3.549,3.549,0,3.5572,3.5568,3.5557,3.5555,3.5551,3.5539,3.5539,3.5533,3.5523,3.552,3.5516,3.5505,3.5498,3.5495,3.5497,3.5494,3.5493,3.549,3.5499,3.55,3.5501,3.5503,3.5504,3.5491,3.5491,3.549,3.549,0,3.558,3.5577,3.5578,3.5569,3.5565,3.5564,3.5553,3.555,3.5543,3.5536,3.5532,3.5523,3.5516,3.5515,3.5508,3.551,3.5508,3.5502,3.5494,3.5503,3.5505,3.5506,3.5492,3.5492,3.5491,3.5491,0,0,3.5601,3.5586,3.5586,3.5582,3.5571,3.5568,3.5566,3.5559,3.5557,3.555,3.5547,3.5541,3.5535,3.553,3.5522,3.5521,3.5528,3.5515,3.5515,3.5517,3.5529,3.5534,3.5535,3.5523,3.5523,3.5523,3.553,0,3.561,3.5606,3.5597,3.5595,3.5592,3.558,3.5579,3.5572,3.5565,3.556,3.5552,3.5548,3.5541,3.5537,3.5536,3.5528,3.553,3.5527,3.552,3.552,3.5522,3.5536,3.5541,3.5547,3.5531,3.5531,3.5531,0,3.562,3.5614,3.5613,3.5602,3.56,3.5598,3.5591,3.5587,3.5579,3.5574,3.5568,3.556,3.5557,3.555,3.5545,3.5543,3.5539,3.5534,3.5534,3.5533,3.5525,3.5534,3.5549,3.555,3.5532,3.5532,3.5532,0,3.5634,3.5626,3.5624,3.562,3.5608,3.5607,3.5601,3.5593,3.5589,3.5582,3.558,3.5573,3.5569,3.5563,3.5553,3.5549,3.5548,3.5541,3.5543,3.5544,3.5543,3.5543,3.5557,3.5542,3.5542,3.5542,3.5542,0,3.5644,3.5644,3.563,3.5628,3.5627,3.5616,3.5615,3.5609,3.5601,3.5598,3.5588,3.5585,3.5572,3.5567,3.5559,3.5555,3.5554,3.5549,3.5547,3.5549,3.555,3.5546,3.5545,3.5543,3.5543,3.5542,3.5542,0,3.5659,3.565,3.5647,3.5636,3.5633,3.5632,3.5622,3.562,3.5613,3.5609,3.5607,3.5595,3.5589,3.5579,3.557,3.5564,3.5562,3.5558,3.5565,3.5563,3.5566,3.5565,3.5578,3.5578,3.5564,3.5564,3.5564,0,3.5666,3.5666,3.5654,3.5652,3.5647,3.5643,3.5639,3.5628,3.5624,3.5615,3.5614,3.5607,3.5601,3.5592,3.5582,3.5575,3.5571,3.5575,3.5569,3.5572,3.557,3.5569,3.5569,3.5576,3.5577,3.5577,3.5577,0,3.5679,3.5675,3.567,3.5663,3.5659,3.5654,3.5647,3.5646,3.5633,3.563,3.5624,3.5619,3.561,3.5603,3.5595,3.5588,3.558,3.5579,3.5579,3.5581,3.5585,3.5582,3.5568,3.5579,3.5578,3.5578,3.5578,3.5578,3.569,3.5688,3.568,3.5675,3.5669,3.5664,3.5661,3.5654,3.5649,3.5641,3.5635,3.5629,3.562,3.5608,3.5602,3.5597,3.5593,3.5593,3.5593,3.5593,3.5594,3.5586,3.5595,3.5595,3.5595,3.5595,3.5595,0,3.5701,3.5696,3.5691,3.5683,3.5679,3.5673,3.5665,3.5662,3.5657,3.565,3.5644,3.5637,3.563,3.562,3.5613,3.561,3.5607,3.5609,3.5608,3.5607,3.5598,3.5599,3.5612,3.5612,3.5612,3.5612,3.5612,3.5612,3.5707,3.5704,3.5699,3.5693,3.5687,3.5682,3.5678,3.5673,3.5667,3.5659,3.5654,3.5648,3.5639,3.5631,3.5624,3.5621,3.5618,3.5621,3.5617,3.5609,3.5608,3.5606,3.5606,3.5621,3.5621,3.5626,3.5626,3.5626]}]]